Terminal Aerodrome Forecast
Issued by NWS Brownsville, TX

Home | Current Version | Previous Version | Text Only | Print | Product List | Glossary On
Versions: 1 2 3 4 5 6 7 8 9 10 11 12 13 14
000
FTUS44 KBRO 252335
TAFBRO
TAF
KBRO 252335Z 2600/2624 10013G18KT P6SM FEW035
     FM260200 12004KT P6SM FEW025
     FM261500 14009KT P6SM SCT040
     FM261800 09012G20KT P6SM BKN050=

USA.gov is the U.S. government's official web portal to all federal, state and local government web resources and services.